User: anonymous   Login
Location: Unspecified
(0.0000°N, 0.0000°E)
Time: 07:43:59
(UTC+00:00)
Language:

STARLINK-30528 - Orbit

View from above orbital plane
View from above orbital plane
View from above satellite
View from above satellite

Ground track
Ground track

The orbit is defined by the following mean orbital elements,

1 57967U          26145.35696220 +.00000000 +00000-0 +37958-4 0 00004
2 57967  43.0034 262.8585 0001388 272.5360  87.5333 15.27581392    03
Epoch (UTC): 25 May 2026 08:34:01
Eccentricity: 0.0001388
inclination: 43.0034°
perigee height: 482 km
apogee height: 484 km
right ascension of ascending node: 262.8585°
argument of perigee: 272.5360°
revolutions per day: 15.27581392
mean anomaly at epoch: 87.5333°

The dashed part of the orbit path shows where the satellite is in the earth's shadow,  

DLR